Location: Calvatone
(45.1167°N, 10.4333°E)
Time: 11:27:25
(UTC+00:00)

PCSat - Visible Passes

Search period start: 05 December 2023 00:00
Search period end: 15 December 2023 00:00
Orbit: 784 x 792 km, 67.1° (Epoch: 04 December)

Date Brightness Start Highest point End Pass type
(mag) Time Alt. Az. Time Alt. Az. Time Alt. Az.
05 Dec 12.4 02:22:56 12° ENE 02:22:56 12° ENE 02:23:30 10° ENE visible
05 Dec 9.9 04:03:39 53° N 04:03:39 53° N 04:07:57 10° NNE visible
05 Dec 11.1 05:44:23 12° WNW 05:46:56 16° NW 05:50:16 10° N visible
06 Dec 11.0 03:33:44 31° NNE 03:33:44 31° NNE 03:36:29 10° NNE visible
06 Dec 10.9 05:14:27 19° NW 05:15:09 20° NW 05:19:04 10° N visible
07 Dec 11.8 03:03:39 18° NE 03:03:39 18° NE 03:04:57 10° NE visible
07 Dec 10.8 04:44:22 23° NNW 04:44:22 23° NNW 04:47:49 10° NNE visible
08 Dec 11.1 04:14:08 22° N 04:14:08 22° N 04:16:31 10° NNE visible
09 Dec 11.6 03:43:50 17° NNE 03:43:50 17° NNE 03:45:10 10° NNE visible
09 Dec 11.5 05:24:32 11° NNW 05:25:00 11° NNW 05:26:36 10° N visible
10 Dec 12.1 03:13:28 12° NNE 03:13:28 12° NNE 03:13:46 10° NNE visible
10 Dec 11.5 04:54:09 13° NNW 04:54:09 13° NNW 04:55:45 10° N visible
11 Dec 11.7 04:23:42 13° N 04:23:42 13° N 04:24:39 10° N visible
12 Dec 12.0 03:53:13 11° N 03:53:13 11° N 03:53:27 10° N visible
